| time (UTC) | temp C | wind direction | speed KPH | gust KPH | rain 1hr cm | rain 24hr cm | rain mn cm | humidity % | barometer mb |
| 20260507031517 | 10 | 22 | 0.0 | 0.0 | 0.00 | 0.00 | 0.00 | 29 | 1017.7 |
| 20260507030019 | 11 | 22 | 0.0 | 1.6 | 0.00 | 0.00 | 0.00 | 28 | 1017.8 |
| 20260507024529 | 11 | 22 | 0.0 | 0.0 | 0.00 | 0.00 | 0.00 | 25 | 1017.9 |
| 20260507023016 | 11 | 21 | 0.0 | 0.0 | 0.00 | 0.00 | 0.00 | 23 | 1017.6 |
| 20260507021515 | 12 | 19 | 0.0 | 0.0 | 0.00 | 0.00 | 0.00 | 22 | 1017.6 |
| 20260507020015 | 12 | 19 | 0.0 | 3.2 | 0.00 | 0.00 | 0.00 | 22 | 1017.7 |
| 20260507014531 | 12 | 19 | 1.6 | 6.4 | 0.00 | 0.00 | 0.00 | 20 | 1017.6 |
| 20260507013013 | 12 | 18 | 4.8 | 9.7 | 0.00 | 0.00 | 0.00 | 19 | 1017.7 |
| 20260507011526 | 13 | 360 | 4.8 | 14.5 | 0.00 | 0.00 | 0.00 | 18 | 1017.6 |
| 20260507010017 | 13 | 360 | 9.7 | 16.1 | 0.00 | 0.00 | 0.00 | 17 | 1017.7 |
| 20260507004511 | 13 | 360 | 9.7 | 17.7 | 0.00 | 0.00 | 0.00 | 17 | 1017.7 |
| 20260507003016 | 14 | 360 | 6.4 | 17.7 | 0.00 | 0.00 | 0.00 | 17 | 1017.8 |
| 20260507001510 | 13 | 18 | 9.7 | 20.9 | 0.00 | 0.00 | 0.00 | 17 | 1017.9 |
| 20260507000009 | 14 | 17 | 16.1 | 33.8 | 0.00 | 0.00 | 0.00 | 15 | 1018.1 |
| 20260506234507 | 15 | 360 | 11.3 | 20.9 | 0.00 | 0.00 | 0.00 | 15 | 1018.1 |
| 20260506233006 | 14 | 20 | 9.7 | 19.3 | 0.00 | 0.00 | 0.00 | 16 | 1018.2 |
| 20260506231506 | 15 | 17 | 16.1 | 30.6 | 0.00 | 0.00 | 0.00 | 15 | 1018.4 |
| 20260506230010 | 14 | 18 | 14.5 | 25.7 | 0.00 | 0.00 | 0.00 | 16 | 1018.5 |
| 20260506224504 | 15 | 360 | 16.1 | 32.2 | 0.00 | 0.00 | 0.00 | 16 | 1018.5 |
| 20260506223003 | 15 | 360 | 12.9 | 22.5 | 0.00 | 0.00 | 0.00 | 17 | 1018.6 |
| 20260506221502 | 14 | 360 | 14.5 | 24.1 | 0.00 | 0.00 | 0.00 | 18 | 1018.8 |
| 20260506220002 | 14 | 355 | 17.7 | 37.0 | 0.00 | 0.00 | 0.00 | 15 | 1019.0 |
| 20260506214501 | 14 | 355 | 14.5 | 33.8 | 0.00 | 0.00 | 0.00 | 16 | 1019.1 |
| 20260506213058 | 15 | 20 | 11.3 | 30.6 | 0.00 | 0.00 | 0.00 | 18 | 1019.1 |
| 20260506211600 | 14 | 360 | 16.1 | 35.4 | 0.00 | 0.00 | 0.00 | 18 | 1019.4 |
| 20260506210059 | 13 | 360 | 14.5 | 30.6 | 0.00 | 0.00 | 0.00 | 18 | 1019.6 |
| 20260506204611 | 13 | 360 | 20.9 | 30.6 | 0.00 | 0.00 | 0.00 | 18 | 1019.6 |
| 20260506203055 | 13 | 5 | 14.5 | 27.4 | 0.00 | 0.00 | 0.00 | 18 | 1019.9 |
| 20260506201554 | 14 | 355 | 19.3 | 27.4 | 0.00 | 0.00 | 0.00 | 18 | 1020.0 |
| 20260506200052 | 13 | 360 | 6.4 | 32.2 | 0.00 | 0.00 | 0.00 | 22 | 1020.3 |
| 20260506194549 | 13 | 360 | 19.3 | 35.4 | 0.00 | 0.00 | 0.00 | 21 | 1020.6 |
| 20260506193047 | 13 | 360 | 20.9 | 30.6 | 0.00 | 0.00 | 0.00 | 23 | 1020.6 |
| 20260506191545 | 12 | 15 | 11.3 | 27.4 | 0.00 | 0.00 | 0.00 | 20 | 1020.8 |
| 20260506190044 | 12 | 5 | 14.5 | 25.7 | 0.00 | 0.00 | 0.00 | 22 | 1020.9 |
| 20260506184545 | 12 | 360 | 12.9 | 30.6 | 0.00 | 0.00 | 0.00 | 19 | 1021.1 |
| 20260506183044 | 12 | 360 | 25.7 | 35.4 | 0.00 | 0.00 | 0.00 | 22 | 1021.4 |
| 20260506181540 | 12 | 21 | 19.3 | 38.6 | 0.00 | 0.00 | 0.00 | 20 | 1021.3 |
| 20260506180039 | 12 | 360 | 11.3 | 38.6 | 0.00 | 0.00 | 0.00 | 21 | 1021.7 |
| 20260506174537 | 12 | 19 | 17.7 | 38.6 | 0.00 | 0.00 | 0.00 | 21 | 1021.8 |
| 20260506173033 | 11 | 5 | 27.4 | 41.8 | 0.00 | 0.00 | 0.00 | 20 | 1021.9 |
| 20260506171533 | 11 | 360 | 24.1 | 38.6 | 0.00 | 0.00 | 0.00 | 22 | 1022.0 |
| 20260506170029 | 11 | 5 | 17.7 | 30.6 | 0.00 | 0.00 | 0.00 | 24 | 1022.1 |
| 20260506164528 | 11 | 360 | 17.7 | 30.6 | 0.00 | 0.00 | 0.00 | 23 | 1022.0 |
| 20260506163026 | 10 | 360 | 16.1 | 33.8 | 0.00 | 0.00 | 0.00 | 24 | 1022.1 |
| 20260506161523 | 10 | 9 | 11.3 | 33.8 | 0.00 | 0.00 | 0.00 | 25 | 1022.1 |
| 20260506160019 | 10 | 360 | 19.3 | 33.8 | 0.00 | 0.00 | 0.00 | 25 | 1022.0 |
| 20260506154516 | 10 | 5 | 14.5 | 30.6 | 0.00 | 0.00 | 0.00 | 28 | 1022.0 |
| 20260506153012 | 9 | 360 | 19.3 | 30.6 | 0.00 | 0.00 | 0.00 | 30 | 1022.2 |
| 20260506151509 | 9 | 19 | 19.3 | 33.8 | 0.00 | 0.00 | 0.00 | 31 | 1022.3 |
| 20260506150007 | 8 | 360 | 12.9 | 25.7 | 0.00 | 0.00 | 0.00 | 34 | 1022.1 |
| 20260506144503 | 8 | 360 | 11.3 | 22.5 | 0.00 | 0.00 | 0.00 | 38 | 1022.2 |
| 20260506143057 | 7 | 5 | 11.3 | 22.5 | 0.00 | 0.00 | 0.00 | 38 | 1022.3 |
| 20260506141652 | 7 | 5 | 11.3 | 20.9 | 0.00 | 0.00 | 0.00 | 38 | 1022.4 |
| 20260506134544 | 6 | 360 | 9.7 | 14.5 | 0.00 | 0.00 | 0.00 | 42 | 1022.2 |
| 20260506133037 | 5 | 39 | 8.0 | 17.7 | 0.00 | 0.00 | 0.00 | 44 | 1022.1 |
| 20260506131542 | 4 | 360 | 8.0 | 17.7 | 0.00 | 0.00 | 0.00 | 46 | 1021.9 |
| 20260506130030 | 3 | 38 | 8.0 | 14.5 | 0.00 | 0.00 | 0.00 | 47 | 1021.9 |
| 20260506124525 | 3 | 360 | 6.4 | 14.5 | 0.00 | 0.00 | 0.00 | 49 | 1021.8 |
| 20260506123033 | 2 | 360 | 6.4 | 12.9 | 0.00 | 0.00 | 0.00 | 50 | 1021.8 |
| 20260506121516 | 1 | 9 | 6.4 | 12.9 | 0.00 | 0.00 | 0.00 | 51 | 1021.5 |
| 20260506120023 | 1 | 9 | 6.4 | 12.9 | 0.00 | 0.00 | 0.00 | 52 | 1021.3 |
| 20260506114517 | 0 | 10 | 4.8 | 9.7 | 0.00 | 0.00 | 0.00 | 53 | 1020.8 |
| 20260506113006 | 0 | 19 | 3.2 | 6.4 | 0.00 | 0.00 | 0.00 | 55 | 1020.5 |
| 20260506111506 | 0 | 19 | 1.6 | 4.8 | 0.00 | 0.00 | 0.00 | 56 | 1020.8 |
| 20260506110002 | 0 | 19 | 0.0 | 3.2 | 0.00 | 0.00 | 0.00 | 56 | 1020.4 |
| 20260506104605 | 0 | 19 | 0.0 | 1.6 | 0.00 | 0.00 | 0.00 | 55 | 1020.1 |
| 20260506103105 | 0 | 19 | 0.0 | 1.6 | 0.00 | 0.00 | 0.00 | 53 | 1020.1 |
| 20260506101554 | 0 | 19 | 0.0 | 1.6 | 0.00 | 0.00 | 0.00 | 52 | 1020.1 |
| 20260506100106 | 1 | 19 | 1.6 | 3.2 | 0.00 | 0.00 | 0.00 | 51 | 1020.3 |
| 20260506094600 | 0 | 19 | 0.0 | 3.2 | 0.00 | 0.00 | 0.00 | 53 | 1020.3 |
| 20260506093047 | 1 | 19 | 0.0 | 1.6 | 0.00 | 0.00 | 0.00 | 52 | 1019.9 |
| 20260506091544 | 1 | 19 | 0.0 | 3.2 | 0.00 | 0.00 | 0.00 | 51 | 1019.9 |
| 20260506090042 | 1 | 19 | 0.0 | 1.6 | 0.00 | 0.00 | 0.00 | 49 | 1019.7 |
| 20260506084540 | 1 | 19 | 0.0 | 1.6 | 0.00 | 0.00 | 0.00 | 50 | 1019.6 |
| 20260506083035 | 2 | 19 | 0.0 | 1.6 | 0.00 | 0.00 | 0.00 | 48 | 1019.7 |
| 20260506081532 | 2 | 19 | 0.0 | 3.2 | 0.00 | 0.00 | 0.00 | 46 | 1019.6 |
| 20260506073025 | 3 | 19 | 0.0 | 3.2 | 0.00 | 0.00 | 0.00 | 46 | 1019.1 |
| 20260506071523 | 3 | 19 | 0.0 | 1.6 | 0.00 | 0.00 | 0.00 | 44 | 1019.0 |
| 20260506061513 | 5 | 19 | 0.0 | 3.2 | 0.00 | 0.00 | 0.00 | 40 | 1018.9 |
| 20260506044557 | 7 | 9 | 6.4 | 16.1 | 0.00 | 0.00 | 0.00 | 30 | 1018.1 |
| 20260506043058 | 7 | 9 | 6.4 | 9.7 | 0.00 | 0.00 | 0.00 | 31 | 1018.2 |
| 20260506041555 | 7 | 10 | 6.4 | 12.9 | 0.00 | 0.00 | 0.00 | 30 | 1018.3 |
| 20260506040055 | 7 | 10 | 6.4 | 17.7 | 0.00 | 0.00 | 0.00 | 29 | 1018.3 |
| 20260506034611 | 8 | 9 | 8.0 | 17.7 | 0.00 | 0.00 | 0.00 | 29 | 1018.2 |
| 20260506033051 | 8 | 9 | 6.4 | 16.1 | 0.00 | 0.00 | 0.00 | 28 | 1018.2 |